When you browse on this site, cookies collect data to enhance your experience and personalize the content and advertising you see.
Visit our Privacy Policy to learn more. By continuing to use the site, you agree to this use of cookies and data.
  • In United Kingdom
  • List of Countries
  • For 7 days
  • Water Temperature
  • Satellite Maps
  • Weather Map
  • Weather Widgets
  • user-avatar
    Login

    Hourly Weather Les Pavillons-sous-Bois

    Today, 18 February, Monday

    Time Temperature Precipitation Wind Pressure Humidity
    00:00 +8°C° 0 mm 2 mps 759 mmHg 78%
    01:00 +8°C° 0 mm 2 mps 759 mmHg 79%
    02:00 +7°C° 0 mm 2 mps 759 mmHg 81%
    03:00 +7°C° 0 mm 2 mps 758 mmHg 83%
    04:00 +7°C° 0 mm 2 mps 758 mmHg 85%
    05:00 +6°C° 0 mm 2 mps 758 mmHg 86%
    06:00 +6°C° 0 mm 2 mps 758 mmHg 88%
    07:00 +7°C° 0 mm 2 mps 758 mmHg 84%
    08:00 +7°C° 0 mm 2 mps 758 mmHg 81%
    09:00 +8°C° 0 mm 2 mps 758 mmHg 77%
    10:00 +9°C° 0 mm 3 mps 758 mmHg 69%
    11:00 +11°C° 0 mm 3 mps 758 mmHg 61%
    12:00 +12°C° 0 mm 3 mps 757 mmHg 54%
    13:00 +12°C° 0 mm 3 mps 757 mmHg 52%
    14:00 +13°C° 0 mm 3 mps 757 mmHg 51%
    15:00 +13°C° 0 mm 4 mps 756 mmHg 50%
    16:00 +12°C° 0 mm 3 mps 756 mmHg 55%
    17:00 +11°C° 0 mm 3 mps 757 mmHg 61%
    18:00 +10°C° 0 mm 2 mps 757 mmHg 67%
    19:00 +10°C° 0 mm 2 mps 757 mmHg 71%
    20:00 +9°C° 0 mm 2 mps 757 mmHg 76%
    21:00 +9°C° 0 mm 2 mps 757 mmHg 80%
    22:00 +9°C° 0.3 mm 2 mps 757 mmHg 83%
    23:00 +8°C° 0.3 mm 2 mps 758 mmHg 86%

    Tomorrow, 19 February, Tuesday

    Time Temperature Precipitation Wind Pressure Humidity
    00:00 +8°C° 0.3 mm 2 mps 758 mmHg 89%
    01:00 +8°C° 0.3 mm 2 mps 758 mmHg 90%
    02:00 +8°C° 0.3 mm 2 mps 758 mmHg 90%
    03:00 +8°C° 0.3 mm 2 mps 758 mmHg 91%
    04:00 +7°C° 0 mm 2 mps 758 mmHg 91%
    05:00 +7°C° 0 mm 2 mps 759 mmHg 92%
    06:00 +6°C° 0 mm 2 mps 759 mmHg 92%
    07:00 +7°C° 0 mm 2 mps 759 mmHg 89%
    08:00 +8°C° 0 mm 1 mps 760 mmHg 86%
    09:00 +8°C° 0 mm 1 mps 760 mmHg 82%
    10:00 +8°C° 0 mm 2 mps 760 mmHg 74%
    11:00 +9°C° 0 mm 2 mps 760 mmHg 65%
    12:00 +12°C° 0 mm 2 mps 761 mmHg 56%
    13:00 +12°C° 0 mm 2 mps 760 mmHg 53%
    14:00 +12°C° 0 mm 2 mps 760 mmHg 49%
    15:00 +12°C° 0 mm 2 mps 760 mmHg 46%
    16:00 +11°C° 0 mm 1 mps 760 mmHg 49%
    17:00 +11°C° 0 mm 1 mps 760 mmHg 53%
    18:00 +10°C° 0 mm 1 mps 760 mmHg 56%
    19:00 +9°C° 0 mm 1 mps 760 mmHg 59%
    20:00 +9°C° 0 mm 1 mps 761 mmHg 61%
    21:00 +8°C° 0 mm 1 mps 761 mmHg 63%
    22:00 +8°C° 0 mm 1 mps 761 mmHg 68%
    23:00 +8°C° 0 mm 1 mps 761 mmHg 72%

    Day after tomorrow, 20 February, Wednesday

    Time Temperature Precipitation Wind Pressure Humidity
    00:00 +6°C° 0 mm 2 mps 761 mmHg 76%
    01:00 +6°C° 0 mm 2 mps 760 mmHg 80%
    02:00 +6°C° 0 mm 2 mps 760 mmHg 83%
    03:00 +5°C° 0 mm 2 mps 760 mmHg 87%
    04:00 +5°C° 0 mm 2 mps 760 mmHg 88%
    05:00 +5°C° 0 mm 2 mps 760 mmHg 89%
    06:00 +5°C° 0 mm 2 mps 760 mmHg 90%
    07:00 +5°C° 0 mm 3 mps 761 mmHg 87%
    08:00 +5°C° 0 mm 3 mps 761 mmHg 84%
    09:00 +7°C° 0 mm 3 mps 761 mmHg 81%
    10:00 +8°C° 0 mm 3 mps 761 mmHg 75%
    11:00 +10°C° 0 mm 3 mps 761 mmHg 69%
    12:00 +11°C° 0 mm 3 mps 761 mmHg 63%
    13:00 +12°C° 0 mm 3 mps 761 mmHg 62%
    14:00 +12°C° 0 mm 3 mps 761 mmHg 60%
    15:00 +12°C° 0 mm 3 mps 761 mmHg 59%
    16:00 +13°C° 0 mm 2 mps 761 mmHg 64%
    17:00 +12°C° 0 mm 2 mps 762 mmHg 69%
    18:00 +10°C° 0 mm 2 mps 762 mmHg 74%
    19:00 +9°C° 0 mm 2 mps 762 mmHg 76%
    20:00 +9°C° 0 mm 2 mps 762 mmHg 79%
    21:00 +9°C° 0 mm 2 mps 763 mmHg 82%
    22:00 +8°C° 0 mm 2 mps 763 mmHg 84%
    23:00 +9°C° 0 mm 1 mps 763 mmHg 86%

    21 February, Thursday

    Time Temperature Precipitation Wind Pressure Humidity
    00:00 +8°C° 0 mm 1 mps 763 mmHg 88%
    01:00 +8°C° 0 mm 1 mps 763 mmHg 89%
    02:00 +8°C° 0 mm 1 mps 763 mmHg 90%
    03:00 +8°C° 0 mm 1 mps 764 mmHg 91%
    04:00 +7°C° 0 mm 1 mps 764 mmHg 92%
    05:00 +7°C° 0 mm 1 mps 764 mmHg 92%
    06:00 +7°C° 0 mm 1 mps 764 mmHg 93%
    07:00 +8°C° 0 mm 1 mps 765 mmHg 90%
    08:00 +7°C° 0 mm 2 mps 765 mmHg 87%
    09:00 +8°C° 0 mm 2 mps 765 mmHg 85%
    10:00 +10°C° 0 mm 2 mps 765 mmHg 78%
    11:00 +12°C° 0 mm 2 mps 765 mmHg 71%
    12:00 +14°C° 0 mm 2 mps 766 mmHg 65%
    13:00 +14°C° 0 mm 1 mps 765 mmHg 61%
    14:00 +15°C° 0 mm 1 mps 765 mmHg 58%
    15:00 +15°C° 0 mm 1 mps 765 mmHg 55%
    16:00 +14°C° 0 mm 1 mps 765 mmHg 59%
    17:00 +12°C° 0 mm 0 mps 766 mmHg 63%
    18:00 +11°C° 0 mm 0 mps 766 mmHg 67%
    19:00 +10°C° 0 mm 0 mps 766 mmHg 70%
    20:00 +11°C° 0 mm 1 mps 767 mmHg 73%
    21:00 +10°C° 0 mm 1 mps 767 mmHg 75%
    22:00 +10°C° 0 mm 1 mps 767 mmHg 77%
    23:00 +10°C° 0 mm 1 mps 768 mmHg 80%

    22 February, Friday

    Time Temperature Precipitation Wind Pressure Humidity
    00:00 +9°C° 0 mm 1 mps 768 mmHg 82%
    01:00 +9°C° 0 mm 1 mps 768 mmHg 83%
    02:00 +9°C° 0 mm 1 mps 768 mmHg 85%
    03:00 +8°C° 0 mm 1 mps 768 mmHg 86%
    04:00 +8°C° 0 mm 1 mps 768 mmHg 87%
    05:00 +8°C° 0 mm 1 mps 768 mmHg 87%
    06:00 +8°C° 0 mm 1 mps 769 mmHg 88%
    07:00 +7°C° 0 mm 2 mps 769 mmHg 84%
    08:00 +8°C° 0 mm 2 mps 769 mmHg 79%
    09:00 +9°C° 0 mm 2 mps 770 mmHg 75%
    10:00 +12°C° 0 mm 2 mps 770 mmHg 69%
    11:00 +13°C° 0 mm 2 mps 770 mmHg 63%
    12:00 +15°C° 0 mm 2 mps 770 mmHg 57%
    13:00 +16°C° 0 mm 2 mps 770 mmHg 57%
    14:00 +16°C° 0 mm 2 mps 769 mmHg 58%
    15:00 +17°C° 0 mm 3 mps 769 mmHg 58%
    16:00 +16°C° 0 mm 3 mps 769 mmHg 65%
    17:00 +14°C° 0 mm 3 mps 769 mmHg 72%
    18:00 +12°C° 0 mm 3 mps 769 mmHg 78%
    19:00 +12°C° 0 mm 3 mps 770 mmHg 80%
    20:00 +11°C° 0 mm 3 mps 770 mmHg 83%
    21:00 +11°C° 0 mm 3 mps 770 mmHg 85%
    22:00 +10°C° 0 mm 3 mps 770 mmHg 85%
    23:00 +10°C° 0 mm 3 mps 770 mmHg 85%

    23 February, Saturday

    Time Temperature Precipitation Wind Pressure Humidity
    00:00 +9°C° 0 mm 2 mps 770 mmHg 86%
    01:00 +8°C° 0 mm 2 mps 770 mmHg 86%
    02:00 +8°C° 0 mm 2 mps 770 mmHg 87%
    03:00 +7°C° 0 mm 2 mps 770 mmHg 88%
    04:00 +7°C° 0 mm 2 mps 770 mmHg 88%
    05:00 +7°C° 0 mm 2 mps 770 mmHg 88%
    06:00 +6°C° 0 mm 2 mps 770 mmHg 88%
    07:00 +7°C° 0 mm 2 mps 770 mmHg 84%
    08:00 +8°C° 0 mm 2 mps 770 mmHg 80%
    09:00 +8°C° 0 mm 2 mps 770 mmHg 76%
    10:00 +10°C° 0 mm 2 mps 770 mmHg 70%
    11:00 +13°C° 0 mm 2 mps 770 mmHg 64%
    12:00 +14°C° 0 mm 2 mps 770 mmHg 59%
    13:00 +15°C° 0 mm 2 mps 770 mmHg 57%
    14:00 +15°C° 0 mm 2 mps 769 mmHg 55%
    15:00 +16°C° 0 mm 2 mps 769 mmHg 53%
    16:00 +15°C° 0 mm 1 mps 769 mmHg 58%
    17:00 +14°C° 0 mm 1 mps 769 mmHg 64%
    18:00 +13°C° 0 mm 1 mps 769 mmHg 69%
    19:00 +12°C° 0 mm 1 mps 770 mmHg 72%
    20:00 +12°C° 0 mm 1 mps 770 mmHg 76%
    21:00 +11°C° 0 mm 1 mps 770 mmHg 79%
    22:00 +11°C° 0 mm 1 mps 770 mmHg 80%
    23:00 +10°C° 0 mm 1 mps 770 mmHg 82%
    Show more